Time,TemperatureF,DewpointF,PressureIn,WindDirection,WindDirectionDegrees,WindSpeedMPH,WindSpeedGustMPH,Humidity,HourlyPrecipIn,Conditions,Clouds,dailyrainin,SoftwareType,DateUTC
2013-01-12 00:01:00,52.2,46.9,29.78,South,169,7.0,7.0,82,0.00,RA,,0.00,WeatherDisplay:10.37,2013-01-12 06:01:00,
2013-01-12 00:06:00,52.3,46.6,29.78,South,175,6.5,16.1,81,0.00,RA,,0.00,WeatherDisplay:10.37,2013-01-12 06:06:00,
2013-01-12 00:11:00,52.3,46.6,29.78,SSE,163,5.1,7.5,81,0.00,CLR,,0.00,WeatherDisplay:10.37,2013-01-12 06:11:00,
2013-01-12 00:16:00,52.3,46.6,29.78,SSW,211,8.0,8.1,81,0.00,CLR,,0.00,WeatherDisplay:10.37,2013-01-12 06:16:00,
2013-01-12 00:21:00,52.2,46.5,29.77,SSE,150,5.1,8.1,81,0.00,CLR,,0.00,WeatherDisplay:10.37,2013-01-12 06:21:00,
2013-01-12 00:26:00,52.2,46.5,29.78,South,187,5.2,16.1,81,0.00,CLR,,0.00,WeatherDisplay:10.37,2013-01-12 06:26:00,
2013-01-12 00:31:00,52.0,46.3,29.78,SSE,158,6.8,10.4,81,0.00,CLR,,0.00,WeatherDisplay:10.37,2013-01-12 06:31:00,
2013-01-12 00:36:00,51.9,46.3,29.78,SSE,157,6.5,6.5,81,0.00,CLR,,0.00,WeatherDisplay:10.37,2013-01-12 06:36:00,
2013-01-12 00:41:00,51.9,46.3,29.78,South,169,8.2,10.4,81,0.00,CLR,,0.00,WeatherDisplay:10.37,2013-01-12 06:41:00,
2013-01-12 00:46:00,51.7,46.1,29.78,SE,127,5.8,9.2,81,0.00,CLR,,0.00,WeatherDisplay:10.37,2013-01-12 06:46:00,
2013-01-12 00:51:00,51.7,46.4,29.78,South,183,7.7,9.2,82,0.00,CLR,,0.00,WeatherDisplay:10.37,2013-01-12 06:51:00,
2013-01-12 00:56:00,51.6,46.3,29.78,SE,137,9.5,16.1,82,0.00,CLR,,0.00,WeatherDisplay:10.37,2013-01-12 06:56:00,
2013-01-12 01:01:00,51.7,46.1,29.78,South,171,13.4,13.4,81,0.00,CLR,,0.00,WeatherDisplay:10.37,2013-01-12 07:01:00,
2013-01-12 01:06:00,51.6,46.0,29.78,ESE,121,9.0,13.8,81,0.00,CLR,,0.00,WeatherDisplay:10.37,2013-01-12 07:06:00,
2013-01-12 01:11:00,51.6,46.0,29.78,South,173,6.4,10.4,81,0.00,CLR,,0.00,WeatherDisplay:10.37,2013-01-12 07:11:00,
2013-01-12 01:16:00,51.6,46.0,29.78,SE,134,7.0,7.0,81,0.00,CLR,,0.00,WeatherDisplay:10.37,2013-01-12 07:16:00,
2013-01-12 01:21:00,51.6,46.3,29.79,SSE,149,8.7,9.2,82,0.00,CLR,,0.00,WeatherDisplay:10.37,2013-01-12 07:21:00,
2013-01-12 01:26:00,51.6,46.3,29.79,South,184,6.9,9.2,82,0.00,CLR,,0.00,WeatherDisplay:10.37,2013-01-12 07:26:00,
2013-01-12 01:31:00,51.6,46.3,29.79,SSE,154,4.2,10.4,82,0.00,CLR,,0.00,WeatherDisplay:10.37,2013-01-12 07:31:00,
2013-01-12 01:36:00,51.4,46.1,29.79,SSW,201,8.7,8.7,82,0.00,CLR,,0.00,WeatherDisplay:10.37,2013-01-12 07:36:00,
2013-01-12 01:41:00,51.6,46.3,29.80,SE,142,10.1,13.8,82,0.00,CLR,,0.00,WeatherDisplay:10.37,2013-01-12 07:41:00,
2013-01-12 01:46:00,51.6,46.3,29.79,SSE,157,7.0,10.5,82,0.00,CLR,,0.00,WeatherDisplay:10.37,2013-01-12 07:46:00,
2013-01-12 01:51:00,51.6,46.0,29.79,SSE,147,5.4,9.2,81,0.00,CLR,,0.00,WeatherDisplay:10.37,2013-01-12 07:51:00,
2013-01-12 01:56:00,51.6,46.3,29.79,South,174,7.1,8.1,82,0.00,CLR,,0.00,WeatherDisplay:10.37,2013-01-12 07:56:00,
2013-01-12 02:01:00,51.4,46.1,29.80,SE,135,6.3,6.3,82,0.00,CLR,,0.00,WeatherDisplay:10.37,2013-01-12 08:01:00,
2013-01-12 02:06:00,51.3,46.0,29.80,SE,134,9.5,9.5,82,0.00,CLR,,0.00,WeatherDisplay:10.37,2013-01-12 08:06:00,
2013-01-12 02:11:00,51.3,46.0,29.81,South,173,5.7,8.1,82,0.00,CLR,,0.00,WeatherDisplay:10.37,2013-01-12 08:11:00,
2013-01-12 02:17:00,51.3,46.0,29.79,South,170,6.7,6.7,82,0.00,CLR,,0.00,WeatherDisplay:10.37,2013-01-12 08:17:00,
2013-01-12 02:22:00,51.3,46.0,29.79,SSE,149,8.7,10.4,82,0.00,CLR,,0.00,WeatherDisplay:10.37,2013-01-12 08:22:00,
2013-01-12 02:27:00,51.3,46.0,29.79,South,169,7.0,8.1,82,0.00,CLR,,0.00,WeatherDisplay:10.37,2013-01-12 08:27:00,
2013-01-12 02:32:00,51.3,46.0,29.79,SE,134,8.1,8.1,82,0.00,CLR,,0.00,WeatherDisplay:10.37,2013-01-12 08:32:00,
2013-01-12 02:37:00,51.1,45.8,29.79,SSE,161,7.2,8.1,82,0.00,CLR,,0.00,WeatherDisplay:10.37,2013-01-12 08:37:00,
2013-01-12 02:42:00,51.1,46.1,29.80,South,178,5.2,9.2,83,0.00,CLR,,0.00,WeatherDisplay:10.37,2013-01-12 08:42:00,
2013-01-12 02:47:00,51.1,46.1,29.80,South,174,4.3,9.2,83,0.00,CLR,,0.00,WeatherDisplay:10.37,2013-01-12 08:47:00,
2013-01-12 02:52:00,51.1,46.1,29.80,SSE,151,6.5,9.2,83,0.00,CLR,,0.00,WeatherDisplay:10.37,2013-01-12 08:52:00,
2013-01-12 02:57:00,51.0,46.0,29.80,SSE,160,6.0,8.1,83,0.00,CLR,,0.00,WeatherDisplay:10.37,2013-01-12 08:57:00,
2013-01-12 03:02:00,51.0,46.0,29.81,SSE,148,6.8,9.2,83,0.00,CLR,,0.00,WeatherDisplay:10.37,2013-01-12 09:02:00,
2013-01-12 03:07:00,51.0,46.0,29.81,ESE,122,6.6,9.2,83,0.00,CLR,,0.00,WeatherDisplay:10.37,2013-01-12 09:07:00,
2013-01-12 03:12:00,50.8,45.8,29.80,SE,141,8.1,9.2,83,0.00,CLR,,0.00,WeatherDisplay:10.37,2013-01-12 09:12:00,
2013-01-12 03:17:00,50.8,45.8,29.80,SSE,153,7.2,9.2,83,0.00,CLR,,0.00,WeatherDisplay:10.37,2013-01-12 09:17:00,
2013-01-12 03:22:00,51.0,46.0,29.79,SE,134,3.0,5.8,83,0.00,CLR,,0.00,WeatherDisplay:10.37,2013-01-12 09:22:00,
2013-01-12 03:27:00,51.0,46.0,29.79,SSE,148,8.0,9.2,83,0.00,CLR,,0.00,WeatherDisplay:10.37,2013-01-12 09:27:00,
2013-01-12 03:32:00,51.1,46.1,29.79,SSE,153,4.1,5.8,83,0.00,CLR,,0.00,WeatherDisplay:10.37,2013-01-12 09:32:00,
2013-01-12 03:37:00,51.0,46.0,29.79,South,184,4.9,9.2,83,0.00,CLR,,0.00,WeatherDisplay:10.37,2013-01-12 09:37:00,
2013-01-12 03:42:00,51.0,46.0,29.79,SE,130,8.1,10.4,83,0.00,CLR,,0.00,WeatherDisplay:10.37,2013-01-12 09:42:00,
2013-01-12 03:48:00,51.0,46.0,29.79,SE,126,8.1,10.5,83,0.00,CLR,,0.00,WeatherDisplay:10.37,2013-01-12 09:48:00,
2013-01-12 03:53:00,51.0,46.3,29.80,SSE,154,3.6,3.6,84,0.00,CLR,,0.00,WeatherDisplay:10.37,2013-01-12 09:53:00,
2013-01-12 03:58:00,51.1,46.1,29.80,SSE,151,4.0,4.6,83,0.00,CLR,,0.00,WeatherDisplay:10.37,2013-01-12 09:58:00,
2013-01-12 04:03:00,51.1,46.1,29.81,SSE,157,2.7,5.8,83,0.00,CLR,,0.00,WeatherDisplay:10.37,2013-01-12 10:03:00,
2013-01-12 04:08:00,51.1,46.1,29.80,ESE,121,4.9,5.8,83,0.00,CLR,,0.00,WeatherDisplay:10.37,2013-01-12 10:08:00,
2013-01-12 04:13:00,51.0,46.3,29.81,SSE,161,3.0,4.6,84,0.00,CLR,,0.00,WeatherDisplay:10.37,2013-01-12 10:13:00,
2013-01-12 04:18:00,50.8,46.1,29.80,SE,132,8.6,9.2,84,0.00,CLR,,0.00,WeatherDisplay:10.37,2013-01-12 10:18:00,
2013-01-12 04:23:00,50.8,46.1,29.80,SSE,158,7.5,8.1,84,0.00,CLR,,0.00,WeatherDisplay:10.37,2013-01-12 10:23:00,
2013-01-12 04:28:00,50.8,46.1,29.80,SSE,159,2.1,8.1,84,0.00,CLR,,0.00,WeatherDisplay:10.37,2013-01-12 10:28:00,
2013-01-12 04:33:00,50.7,46.0,29.79,ESE,122,1.7,4.5,84,0.00,CLR,,0.00,WeatherDisplay:10.37,2013-01-12 10:33:00,
2013-01-12 04:38:00,50.5,46.2,29.79,SE,130,4.3,5.8,85,0.00,CLR,,0.00,WeatherDisplay:10.37,2013-01-12 10:38:00,
2013-01-12 04:43:00,50.5,46.2,29.80,SSE,158,5.6,6.0,85,0.00,CLR,,0.00,WeatherDisplay:10.37,2013-01-12 10:43:00,
2013-01-12 04:48:00,50.5,46.2,29.80,South,173,3.3,4.6,85,0.00,CLR,,0.00,WeatherDisplay:10.37,2013-01-12 10:48:00,
2013-01-12 04:53:00,50.5,46.2,29.80,SSE,165,3.0,4.6,85,0.00,CLR,,0.00,WeatherDisplay:10.37,2013-01-12 10:53:00,
2013-01-12 04:58:00,50.4,46.1,29.81,South,174,4.6,4.6,85,0.00,CLR,,0.00,WeatherDisplay:10.37,2013-01-12 10:58:00,
2013-01-12 05:03:00,50.5,46.2,29.81,SE,142,7.1,9.2,85,0.00,CLR,,0.00,WeatherDisplay:10.37,2013-01-12 11:03:00,
2013-01-12 05:08:00,50.5,46.2,29.81,South,178,0.1,1.1,85,0.00,CLR,,0.00,WeatherDisplay:10.37,2013-01-12 11:08:00,
2013-01-12 05:13:00,50.5,46.2,29.81,SE,146,4.4,5.8,85,0.00,CLR,,0.00,WeatherDisplay:10.37,2013-01-12 11:13:00,
2013-01-12 05:18:00,50.5,46.2,29.81,South,188,1.0,1.5,85,0.00,CLR,,0.00,WeatherDisplay:10.37,2013-01-12 11:18:00,
2013-01-12 05:23:00,50.5,46.2,29.82,South,182,3.3,3.5,85,0.00,CLR,,0.00,WeatherDisplay:10.37,2013-01-12 11:23:00,
2013-01-12 05:28:00,50.5,46.2,29.82,ESE,119,2.3,8.1,85,0.00,CLR,,0.00,WeatherDisplay:10.37,2013-01-12 11:28:00,
2013-01-12 05:33:00,50.5,46.2,29.82,SSE,151,3.2,4.5,85,0.00,CLR,,0.00,WeatherDisplay:10.37,2013-01-12 11:33:00,
2013-01-12 05:38:00,50.7,46.4,29.82,SSE,148,3.0,6.0,85,0.00,CLR,,0.00,WeatherDisplay:10.37,2013-01-12 11:38:00,
2013-01-12 05:43:00,50.8,46.5,29.82,SSE,164,1.4,4.5,85,0.00,CLR,,0.00,WeatherDisplay:10.37,2013-01-12 11:43:00,
2013-01-12 05:48:00,50.8,46.5,29.82,ESE,123,2.2,5.8,85,0.00,CLR,,0.00,WeatherDisplay:10.37,2013-01-12 11:48:00,
2013-01-12 05:53:00,50.8,46.5,29.82,South,178,5.2,8.1,85,0.00,CLR,,0.00,WeatherDisplay:10.37,2013-01-12 11:53:00,
2013-01-12 05:58:00,51.0,46.6,29.83,SSE,160,2.1,2.1,85,0.00,CLR,,0.00,WeatherDisplay:10.37,2013-01-12 11:58:00,
2013-01-12 06:03:00,51.1,46.7,29.83,SSW,194,0.6,3.5,85,0.00,CLR,,0.00,WeatherDisplay:10.37,2013-01-12 12:03:00,
2013-01-12 06:08:00,51.3,46.9,29.83,South,172,3.2,3.5,85,0.00,CLR,,0.00,WeatherDisplay:10.37,2013-01-12 12:08:00,
2013-01-12 06:13:00,51.4,47.0,29.83,SE,145,5.2,5.8,85,0.00,CLR,,0.00,WeatherDisplay:10.37,2013-01-12 12:13:00,
2013-01-12 06:18:00,51.6,47.2,29.83,SSE,151,1.5,1.5,85,0.00,CLR,,0.00,WeatherDisplay:10.37,2013-01-12 12:18:00,
2013-01-12 06:23:00,51.4,46.7,29.83,SSE,156,2.1,4.6,84,0.00,CLR,,0.00,WeatherDisplay:10.37,2013-01-12 12:23:00,
2013-01-12 06:28:00,51.4,47.0,29.83,South,180,2.4,4.6,85,0.00,CLR,,0.00,WeatherDisplay:10.37,2013-01-12 12:28:00,
2013-01-12 06:33:00,51.4,47.0,29.83,SSW,193,2.2,5.8,85,0.00,CLR,,0.00,WeatherDisplay:10.37,2013-01-12 12:33:00,
2013-01-12 06:38:00,51.4,47.0,29.84,SSE,159,1.7,4.6,85,0.00,CLR,,0.00,WeatherDisplay:10.37,2013-01-12 12:38:00,
2013-01-12 06:43:00,51.3,46.9,29.84,SSW,194,4.0,5.8,85,0.00,CLR,,0.00,WeatherDisplay:10.37,2013-01-12 12:43:00,
2013-01-12 06:48:00,51.3,46.9,29.84,SSE,151,0.4,1.5,85,0.00,CLR,,0.00,WeatherDisplay:10.37,2013-01-12 12:48:00,
2013-01-12 06:53:00,51.3,46.9,29.84,SE,145,2.2,3.5,85,0.00,CLR,,0.00,WeatherDisplay:10.37,2013-01-12 12:53:00,
2013-01-12 06:58:00,51.1,46.7,29.84,SSE,148,0.1,1.5,85,0.00,CLR,,0.00,WeatherDisplay:10.37,2013-01-12 12:58:00,
2013-01-12 07:03:00,51.0,46.6,29.84,SE,144,3.8,3.8,85,0.00,CLR,,0.00,WeatherDisplay:10.37,2013-01-12 13:03:00,
2013-01-12 07:08:00,51.0,47.0,29.85,SSE,159,3.1,4.6,86,0.00,CLR,,0.00,WeatherDisplay:10.37,2013-01-12 13:08:00,
2013-01-12 07:13:00,50.8,46.5,29.85,SSE,164,0.1,1.5,85,0.00,CLR,,0.00,WeatherDisplay:10.37,2013-01-12 13:13:00,
2013-01-12 07:18:00,50.7,46.7,29.85,SE,133,2.4,3.5,86,0.00,CLR,,0.00,WeatherDisplay:10.37,2013-01-12 13:18:00,
2013-01-12 07:23:00,50.5,46.5,29.86,South,186,1.3,3.5,86,0.00,CLR,,0.00,WeatherDisplay:10.37,2013-01-12 13:23:00,
2013-01-12 07:28:00,50.4,46.4,29.86,SE,136,2.9,4.6,86,0.00,CLR,,0.00,WeatherDisplay:10.37,2013-01-12 13:28:00,
2013-01-12 07:33:00,50.4,46.4,29.86,South,180,3.0,4.6,86,0.00,CLR,,0.00,WeatherDisplay:10.37,2013-01-12 13:33:00,
2013-01-12 07:38:00,50.2,46.5,29.86,South,180,0.1,0.0,87,0.00,CLR,,0.00,WeatherDisplay:10.37,2013-01-12 13:38:00,
2013-01-12 07:43:00,50.2,46.5,29.87,SE,135,2.3,4.6,87,0.00,CLR,,0.00,WeatherDisplay:10.37,2013-01-12 13:43:00,
2013-01-12 07:48:00,50.2,46.5,29.87,SE,141,1.7,7.5,87,0.00,CLR,,0.00,WeatherDisplay:10.37,2013-01-12 13:48:00,
2013-01-12 07:53:00,50.4,46.7,29.86,SSW,206,1.3,5.8,87,0.00,CLR,,0.00,WeatherDisplay:10.37,2013-01-12 13:53:00,
2013-01-12 07:58:00,50.4,46.7,29.87,SE,133,3.6,5.8,87,0.00,CLR,,0.00,WeatherDisplay:10.37,2013-01-12 13:58:00,
2013-01-12 08:03:00,50.2,46.5,29.87,SE,132,1.5,1.5,87,0.00,CLR,,0.00,WeatherDisplay:10.37,2013-01-12 14:03:00,
2013-01-12 08:08:00,50.2,46.5,29.87,SSE,167,0.3,3.5,87,0.00,CLR,,0.00,WeatherDisplay:10.37,2013-01-12 14:08:00,
2013-01-12 08:13:00,50.1,46.4,29.88,South,169,3.7,3.7,87,0.00,CLR,,0.00,WeatherDisplay:10.37,2013-01-12 14:13:00,
2013-01-12 08:18:00,50.1,46.4,29.89,SSE,149,1.2,3.5,87,0.00,CLR,,0.00,WeatherDisplay:10.37,2013-01-12 14:18:00,
2013-01-12 08:23:00,50.1,46.4,29.89,SSE,149,0.4,1.1,87,0.00,CLR,,0.00,WeatherDisplay:10.37,2013-01-12 14:23:00,
2013-01-12 08:28:00,50.1,46.4,29.89,SSE,157,0.9,1.1,87,0.00,CLR,,0.00,WeatherDisplay:10.37,2013-01-12 14:28:00,
2013-01-12 08:34:00,50.1,46.7,29.89,SSE,158,2.8,4.6,88,0.00,CLR,,0.00,WeatherDisplay:10.37,2013-01-12 14:34:00,
2013-01-12 08:39:00,50.2,46.8,29.89,SE,143,6.4,6.4,88,0.00,CLR,,0.00,WeatherDisplay:10.37,2013-01-12 14:39:00,
2013-01-12 08:44:00,50.4,47.0,29.89,SE,142,0.6,1.1,88,0.00,CLR,,0.00,WeatherDisplay:10.37,2013-01-12 14:44:00,
2013-01-12 08:49:00,50.4,47.0,29.89,SE,140,2.2,3.5,88,0.00,CLR,,0.00,WeatherDisplay:10.37,2013-01-12 14:49:00,
2013-01-12 08:54:00,50.4,47.0,29.90,SSE,168,2.8,4.6,88,0.00,CLR,,0.00,WeatherDisplay:10.37,2013-01-12 14:54:00,
2013-01-12 08:59:00,50.5,47.1,29.90,SSE,150,3.4,4.6,88,0.00,CLR,,0.00,WeatherDisplay:10.37,2013-01-12 14:59:00,
2013-01-12 09:04:00,50.7,47.3,29.90,South,181,4.4,9.2,88,0.00,CLR,,0.00,WeatherDisplay:10.37,2013-01-12 15:04:00,
2013-01-12 09:09:00,50.8,47.4,29.90,SSE,165,6.1,8.1,88,0.00,CLR,,0.00,WeatherDisplay:10.37,2013-01-12 15:09:00,
2013-01-12 09:14:00,50.8,47.4,29.90,South,182,3.7,8.1,88,0.00,CLR,,0.00,WeatherDisplay:10.37,2013-01-12 15:14:00,
2013-01-12 09:19:00,51.0,47.3,29.89,SE,141,3.2,4.6,87,0.00,CLR,,0.00,WeatherDisplay:10.37,2013-01-12 15:19:00,
2013-01-12 09:24:00,51.0,47.3,29.90,SSE,148,0.8,3.0,87,0.00,CLR,,0.00,WeatherDisplay:10.37,2013-01-12 15:24:00,
2013-01-12 09:29:00,51.3,47.6,29.90,ESE,117,1.9,4.6,87,0.00,CLR,,0.00,WeatherDisplay:10.37,2013-01-12 15:29:00,
2013-01-12 09:34:00,51.6,47.9,29.90,South,175,5.9,8.1,87,0.00,CLR,,0.00,WeatherDisplay:10.37,2013-01-12 15:34:00,
2013-01-12 09:39:00,52.2,48.4,29.90,SSW,194,1.7,3.5,87,0.00,CLR,,0.00,WeatherDisplay:10.37,2013-01-12 15:39:00,
2013-01-12 09:44:00,52.5,48.7,29.90,SSE,168,0.2,1.5,87,0.00,CLR,,0.00,WeatherDisplay:10.37,2013-01-12 15:44:00,
2013-01-12 09:49:00,52.9,48.8,29.90,South,185,4.6,6.0,86,0.00,CLR,,0.00,WeatherDisplay:10.37,2013-01-12 15:49:00,
2013-01-12 09:54:00,53.3,49.2,29.90,SE,144,1.1,3.5,86,0.00,CLR,,0.00,WeatherDisplay:10.37,2013-01-12 15:54:00,
2013-01-12 09:59:00,54.1,49.7,29.90,SE,133,2.3,3.5,85,0.00,CLR,,0.00,WeatherDisplay:10.37,2013-01-12 15:59:00,
2013-01-12 10:04:00,54.7,49.6,29.90,South,186,0.4,3.5,83,0.00,CLR,,0.00,WeatherDisplay:10.37,2013-01-12 16:04:00,
2013-01-12 10:09:00,55.1,49.7,29.90,North,355,1.3,3.0,82,0.00,CLR,,0.00,WeatherDisplay:10.37,2013-01-12 16:09:00,
2013-01-12 10:14:00,55.3,49.9,29.90,South,178,7.0,10.4,82,0.00,CLR,,0.00,WeatherDisplay:10.37,2013-01-12 16:14:00,
2013-01-12 10:19:00,55.7,50.3,29.90,SSE,159,3.1,3.5,82,0.00,CLR,,0.00,WeatherDisplay:10.37,2013-01-12 16:19:00,
2013-01-12 10:24:00,56.2,50.4,29.90,South,169,5.0,5.0,81,0.00,CLR,,0.00,WeatherDisplay:10.37,2013-01-12 16:24:00,
2013-01-12 10:29:00,56.2,50.1,29.90,South,191,2.5,4.6,80,0.00,CLR,,0.00,WeatherDisplay:10.37,2013-01-12 16:29:00,
2013-01-12 10:34:00,56.0,49.9,29.90,WSW,252,0.9,5.8,80,0.00,CLR,,0.00,WeatherDisplay:10.37,2013-01-12 16:34:00,
2013-01-12 10:39:00,55.9,49.8,29.90,SW,217,0.0,1.1,80,0.00,CLR,,0.00,WeatherDisplay:10.37,2013-01-12 16:39:00,
2013-01-12 10:44:00,56.0,49.9,29.89,West,262,5.3,5.8,80,0.00,CLR,,0.00,WeatherDisplay:10.37,2013-01-12 16:44:00,
2013-01-12 10:49:00,56.3,50.2,29.90,SW,221,1.0,3.5,80,0.00,CLR,,0.00,WeatherDisplay:10.37,2013-01-12 16:49:00,
2013-01-12 10:54:00,56.7,50.3,29.89,SW,217,5.3,5.8,79,0.00,CLR,,0.00,WeatherDisplay:10.37,2013-01-12 16:54:00,
2013-01-12 10:59:00,57.0,50.5,29.89,SW,234,2.5,4.6,79,0.00,CLR,,0.00,WeatherDisplay:10.37,2013-01-12 16:59:00,
2013-01-12 11:04:00,57.6,51.1,29.89,SSE,155,3.3,6.0,79,0.00,CLR,,0.00,WeatherDisplay:10.37,2013-01-12 17:04:00,
2013-01-12 11:09:00,57.6,50.4,29.90,SSE,149,4.7,4.7,77,0.00,CLR,,0.00,WeatherDisplay:10.37,2013-01-12 17:09:00,
2013-01-12 11:14:00,58.1,50.9,29.89,WSW,242,1.2,4.6,77,0.00,CLR,,0.00,WeatherDisplay:10.37,2013-01-12 17:14:00,
2013-01-12 11:19:00,58.0,50.5,29.89,SW,228,6.6,8.1,76,0.00,CLR,,0.00,WeatherDisplay:10.37,2013-01-12 17:19:00,
2013-01-12 11:24:00,58.0,50.8,29.89,West,267,1.0,4.6,77,0.00,CLR,,0.00,WeatherDisplay:10.37,2013-01-12 17:24:00,
2013-01-12 11:29:00,58.1,50.6,29.90,West,260,10.3,15.0,76,0.00,CLR,,0.00,WeatherDisplay:10.37,2013-01-12 17:29:00,
2013-01-12 11:34:00,58.1,50.2,29.89,West,280,8.3,13.8,75,0.00,CLR,,0.00,WeatherDisplay:10.37,2013-01-12 17:34:00,
2013-01-12 11:39:00,58.3,50.4,29.88,South,183,3.6,4.6,75,0.00,CLR,,0.00,WeatherDisplay:10.37,2013-01-12 17:39:00,
2013-01-12 11:44:00,58.6,50.3,29.88,WSW,256,4.7,5.8,74,0.00,CLR,,0.00,WeatherDisplay:10.37,2013-01-12 17:44:00,
2013-01-12 11:49:00,58.4,49.8,29.88,SW,236,9.0,9.0,73,0.00,CLR,,0.00,WeatherDisplay:10.37,2013-01-12 17:49:00,
2013-01-12 11:54:00,58.3,49.7,29.88,SW,214,2.4,3.5,73,0.00,CLR,,0.00,WeatherDisplay:10.37,2013-01-12 17:54:00,
2013-01-12 11:59:00,58.4,49.8,29.88,West,265,2.6,8.1,73,0.00,CLR,,0.00,WeatherDisplay:10.37,2013-01-12 17:59:00,
2013-01-12 12:04:00,58.6,49.6,29.87,West,281,7.4,7.4,72,0.00,CLR,,0.00,WeatherDisplay:10.37,2013-01-12 18:04:00,
2013-01-12 12:09:00,58.7,50.1,29.87,NNW,340,1.2,4.6,73,0.00,CLR,,0.00,WeatherDisplay:10.37,2013-01-12 18:09:00,
2013-01-12 12:14:00,58.7,49.7,29.87,WNW,303,1.2,8.1,72,0.00,SCT,,0.00,WeatherDisplay:10.37,2013-01-12 18:14:00,
2013-01-12 12:19:00,58.6,50.0,29.87,SW,229,2.1,3.0,73,0.00,SCT,,0.00,WeatherDisplay:10.37,2013-01-12 18:19:00,
2013-01-12 12:24:00,58.7,50.1,29.87,SE,138,0.0,0.0,73,0.00,SCT,,0.00,WeatherDisplay:10.37,2013-01-12 18:24:00,
2013-01-12 12:29:00,58.9,49.5,29.87,NW,311,0.7,3.5,71,0.00,SCT,,0.00,WeatherDisplay:10.37,2013-01-12 18:29:00,
2013-01-12 12:34:00,58.7,49.3,29.86,West,270,0.1,0.0,71,0.00,SCT,,0.00,WeatherDisplay:10.37,2013-01-12 18:34:00,
2013-01-12 12:39:00,58.9,49.5,29.85,SE,124,2.7,3.5,71,0.00,SCT,,0.00,WeatherDisplay:10.37,2013-01-12 18:39:00,
2013-01-12 12:44:00,59.0,49.6,29.85,WSW,243,3.2,4.5,71,0.00,SCT,,0.00,WeatherDisplay:10.37,2013-01-12 18:44:00,
2013-01-12 12:49:00,59.0,50.0,29.85,WSW,247,0.0,1.1,72,0.00,SCT,,0.00,WeatherDisplay:10.37,2013-01-12 18:49:00,
2013-01-12 12:54:00,59.2,49.8,29.86,WSW,247,0.5,3.5,71,0.00,CLR,,0.00,WeatherDisplay:10.37,2013-01-12 18:54:00,
2013-01-12 12:59:00,59.5,50.1,29.85,WSW,247,1.0,0.0,71,0.00,CLR,,0.00,WeatherDisplay:10.37,2013-01-12 18:59:00,
2013-01-12 13:04:00,59.5,49.3,29.86,SE,133,0.6,5.8,69,0.00,CLR,,0.00,WeatherDisplay:10.37,2013-01-12 19:04:00,
2013-01-12 13:09:00,59.5,49.7,29.86,SE,133,0.4,0.0,70,0.00,CLR,,0.00,WeatherDisplay:10.37,2013-01-12 19:09:00,
2013-01-12 13:14:00,59.6,49.8,29.86,West,281,3.7,4.6,70,0.00,CLR,,0.00,WeatherDisplay:10.37,2013-01-12 19:14:00,
2013-01-12 13:19:00,59.5,49.7,29.85,WNW,285,2.7,4.6,70,0.00,CLR,,0.00,WeatherDisplay:10.37,2013-01-12 19:19:00,
2013-01-12 13:24:00,59.3,49.5,29.85,West,268,3.6,4.6,70,0.00,CLR,,0.00,WeatherDisplay:10.37,2013-01-12 19:24:00,
2013-01-12 13:29:00,59.3,49.5,29.85,West,267,0.4,1.1,70,0.00,CLR,,0.00,WeatherDisplay:10.37,2013-01-12 19:29:00,
2013-01-12 13:34:00,59.2,49.4,29.86,West,267,0.0,1.1,70,0.00,CLR,,0.00,WeatherDisplay:10.37,2013-01-12 19:34:00,
2013-01-12 13:39:00,59.2,50.2,29.86,South,188,0.4,1.5,72,0.00,CLR,,0.00,WeatherDisplay:10.37,2013-01-12 19:39:00,
2013-01-12 13:44:00,59.0,50.0,29.86,South,188,0.6,3.5,72,0.00,CLR,,0.00,WeatherDisplay:10.37,2013-01-12 19:44:00,
2013-01-12 13:49:00,59.0,50.4,29.86,South,188,0.0,1.1,73,0.00,CLR,,0.00,WeatherDisplay:10.37,2013-01-12 19:49:00,
2013-01-12 13:54:00,59.0,50.4,29.87,South,174,2.5,6.0,73,0.00,CLR,,0.00,WeatherDisplay:10.37,2013-01-12 19:54:00,
2013-01-12 13:59:00,59.0,50.0,29.87,South,184,0.2,1.1,72,0.00,CLR,,0.00,WeatherDisplay:10.37,2013-01-12 19:59:00,
2013-01-12 14:04:00,59.0,50.4,29.87,South,184,0.0,0.0,73,0.00,CLR,,0.00,WeatherDisplay:10.37,2013-01-12 20:04:00,
2013-01-12 14:10:00,58.9,50.3,29.87,SE,135,1.6,4.6,73,0.00,CLR,,0.00,WeatherDisplay:10.37,2013-01-12 20:10:00,
2013-01-12 14:15:00,58.7,50.1,29.88,SE,136,0.6,3.5,73,0.00,CLR,,0.00,WeatherDisplay:10.37,2013-01-12 20:15:00,
2013-01-12 14:20:00,58.7,50.1,29.88,SSE,155,1.3,1.3,73,0.00,CLR,,0.00,WeatherDisplay:10.37,2013-01-12 20:20:00,
2013-01-12 14:25:00,58.9,50.3,29.88,West,275,1.5,3.5,73,0.00,BKN,,0.00,WeatherDisplay:10.37,2013-01-12 20:25:00,
2013-01-12 14:30:00,58.7,50.1,29.87,NW,317,3.1,4.6,73,0.00,BKN,,0.00,WeatherDisplay:10.37,2013-01-12 20:30:00,
2013-01-12 14:35:00,58.7,50.1,29.86,NW,317,0.2,1.1,73,0.00,SCT,,0.00,WeatherDisplay:10.37,2013-01-12 20:35:00,
2013-01-12 14:40:00,58.6,50.0,29.86,NW,307,2.4,3.5,73,0.00,SCT,,0.00,WeatherDisplay:10.37,2013-01-12 20:40:00,
2013-01-12 14:45:00,58.4,50.1,29.86,NW,310,0.3,3.5,74,0.00,SCT,,0.00,WeatherDisplay:10.37,2013-01-12 20:45:00,
2013-01-12 14:50:00,58.3,50.0,29.86,NW,317,2.8,3.5,74,0.00,SCT,,0.00,WeatherDisplay:10.37,2013-01-12 20:50:00,
2013-01-12 14:55:00,58.1,49.9,29.85,WNW,283,5.6,5.8,74,0.00,SCT,,0.00,WeatherDisplay:10.37,2013-01-12 20:55:00,
2013-01-12 15:00:00,58.0,50.1,29.85,WNW,283,2.4,3.5,75,0.00,SCT,,0.00,WeatherDisplay:10.37,2013-01-12 21:00:00,
2013-01-12 15:05:00,57.8,49.9,29.85,NW,320,2.7,6.0,75,0.00,SCT,,0.00,WeatherDisplay:10.37,2013-01-12 21:05:00,
2013-01-12 15:10:00,56.9,49.4,29.85,NW,324,9.0,10.5,76,0.00,SCT,,0.00,WeatherDisplay:10.37,2013-01-12 21:10:00,
2013-01-12 15:15:00,55.9,49.1,29.85,NW,318,2.2,5.8,78,0.00,SCT,,0.00,WeatherDisplay:10.37,2013-01-12 21:15:00,
2013-01-12 15:20:00,55.1,48.4,29.85,NNW,334,6.9,9.2,78,0.00,SCT,,0.00,WeatherDisplay:10.37,2013-01-12 21:20:00,
2013-01-12 15:25:00,54.5,48.1,29.85,WNW,292,8.1,10.4,79,0.00,CLR,,0.00,WeatherDisplay:10.37,2013-01-12 21:25:00,
2013-01-12 15:30:00,53.5,46.8,29.85,NW,318,10.5,13.5,78,0.00,CLR,,0.00,WeatherDisplay:10.37,2013-01-12 21:30:00,
2013-01-12 15:35:00,52.8,46.5,29.85,NNW,343,17.9,19.6,79,0.00,CLR,,0.00,WeatherDisplay:10.37,2013-01-12 21:35:00,
2013-01-12 15:40:00,52.2,45.9,29.86,North,355,13.1,13.1,79,0.00,CLR,,0.00,WeatherDisplay:10.37,2013-01-12 21:40:00,
2013-01-12 15:45:00,51.7,45.4,29.86,WNW,289,11.3,15.0,79,0.00,CLR,,0.00,WeatherDisplay:10.37,2013-01-12 21:45:00,
2013-01-12 15:50:00,51.0,44.7,29.86,NNW,337,11.5,11.5,79,0.00,CLR,,0.00,WeatherDisplay:10.37,2013-01-12 21:50:00,
2013-01-12 15:55:00,50.1,43.8,29.86,NW,325,15.7,16.5,79,0.00,CLR,,0.00,WeatherDisplay:10.37,2013-01-12 21:55:00,
2013-01-12 16:00:00,49.4,43.2,29.86,West,275,4.8,8.1,79,0.00,CLR,,0.00,WeatherDisplay:10.37,2013-01-12 22:00:00,
2013-01-12 16:05:00,48.8,42.2,29.87,West,280,9.4,9.4,78,0.00,CLR,,0.00,WeatherDisplay:10.37,2013-01-12 22:05:00,
2013-01-12 16:10:00,48.2,41.3,29.87,NW,325,12.7,16.1,77,0.00,CLR,,0.00,WeatherDisplay:10.37,2013-01-12 22:10:00,
2013-01-12 16:15:00,47.7,40.8,29.87,NNW,342,9.7,9.7,77,0.00,SCT,,0.00,WeatherDisplay:10.37,2013-01-12 22:15:00,
2013-01-12 16:20:00,47.4,40.6,29.87,West,273,9.5,11.5,77,0.00,SCT,,0.00,WeatherDisplay:10.37,2013-01-12 22:20:00,
2013-01-12 16:25:00,47.1,40.6,29.88,WNW,301,10.1,10.1,78,0.00,SCT,,0.00,WeatherDisplay:10.37,2013-01-12 22:25:00,
2013-01-12 16:30:00,46.5,38.7,29.87,NW,324,12.0,13.8,74,0.00,SCT,,0.00,WeatherDisplay:10.37,2013-01-12 22:30:00,
2013-01-12 16:35:00,46.2,37.7,29.87,NNW,332,11.6,16.1,72,0.00,SCT,,0.00,WeatherDisplay:10.37,2013-01-12 22:35:00,
2013-01-12 16:40:00,45.8,37.3,29.87,NW,323,10.9,18.4,72,0.00,SCT,,0.00,WeatherDisplay:10.37,2013-01-12 22:40:00,
2013-01-12 16:45:00,45.5,37.0,29.86,NW,319,1.4,3.5,72,0.00,SCT,,0.00,WeatherDisplay:10.37,2013-01-12 22:45:00,
2013-01-12 16:50:00,45.1,37.0,29.87,NW,318,7.3,8.1,73,0.01,RA,,0.01,WeatherDisplay:10.37,2013-01-12 22:50:00,
2013-01-12 16:55:00,44.6,37.2,29.86,NW,311,11.1,11.1,75,0.01,RA,,0.01,WeatherDisplay:10.37,2013-01-12 22:55:00,
2013-01-12 17:00:00,44.2,37.4,29.86,NW,318,5.0,8.1,77,0.01,BKN,,0.02,WeatherDisplay:10.37,2013-01-12 23:00:00,
2013-01-12 17:05:00,43.9,37.8,29.86,NNW,333,9.0,9.2,79,0.02,RA,,0.02,WeatherDisplay:10.37,2013-01-12 23:05:00,
2013-01-12 17:10:00,43.6,38.5,29.85,NNW,348,7.2,9.2,82,0.03,RA,,0.03,WeatherDisplay:10.37,2013-01-12 23:10:00,
2013-01-12 17:15:00,43.5,38.7,29.85,NNW,340,8.2,9.2,83,0.03,RA,,0.03,WeatherDisplay:10.37,2013-01-12 23:15:00,
2013-01-12 17:20:00,43.5,39.3,29.85,NNW,342,5.9,6.0,85,0.04,RA,,0.04,WeatherDisplay:10.37,2013-01-12 23:20:00,
2013-01-12 17:25:00,43.3,39.1,29.85,NW,317,6.6,8.1,85,0.04,RA,,0.04,WeatherDisplay:10.37,2013-01-12 23:25:00,
2013-01-12 17:30:00,43.3,39.4,29.85,NW,309,11.0,15.0,86,0.05,RA,,0.05,WeatherDisplay:10.37,2013-01-12 23:30:00,
2013-01-12 17:35:00,43.1,39.5,29.85,NW,325,7.2,12.0,87,0.06,RA,,0.06,WeatherDisplay:10.37,2013-01-12 23:35:00,
2013-01-12 17:40:00,42.9,39.3,29.85,NNW,340,15.3,19.6,87,0.07,RA,,0.07,WeatherDisplay:10.37,2013-01-12 23:40:00,
2013-01-12 17:45:00,42.6,39.0,29.85,NNW,340,5.6,10.4,87,0.08,RA,,0.08,WeatherDisplay:10.37,2013-01-12 23:45:00,
2013-01-12 17:50:00,42.5,38.9,29.84,NNW,332,14.1,16.1,87,0.09,RA,,0.10,WeatherDisplay:10.37,2013-01-12 23:50:00,
2013-01-12 17:55:00,42.3,38.7,29.85,NNE,14,9.9,16.1,87,0.10,RA,,0.12,WeatherDisplay:10.37,2013-01-12 23:55:00,
2013-01-12 18:00:00,42.1,38.8,29.85,North,10,9.9,13.8,88,0.12,RA,,0.14,WeatherDisplay:10.37,2013-01-13 00:00:00,
2013-01-12 18:05:00,41.8,38.2,29.85,WNW,295,12.6,18.4,87,0.13,RA,,0.15,WeatherDisplay:10.37,2013-01-13 00:05:00,
2013-01-12 18:10:00,41.6,38.0,29.84,NNW,342,13.6,13.6,87,0.14,RA,,0.17,WeatherDisplay:10.37,2013-01-13 00:10:00,
2013-01-12 18:15:00,41.5,37.9,29.83,North,5,13.6,13.8,87,0.15,RA,,0.18,WeatherDisplay:10.37,2013-01-13 00:15:00,
2013-01-12 18:20:00,41.5,38.2,29.82,North,350,8.2,10.4,88,0.15,RA,,0.20,WeatherDisplay:10.37,2013-01-13 00:20:00,
2013-01-12 18:25:00,41.5,38.5,29.83,North,355,7.6,13.8,89,0.17,RA,,0.21,WeatherDisplay:10.37,2013-01-13 00:25:00,
2013-01-12 18:30:00,41.5,38.5,29.83,North,355,12.0,12.0,89,0.17,RA,,0.22,WeatherDisplay:10.37,2013-01-13 00:30:00,
2013-01-12 18:35:00,41.5,38.5,29.82,NW,318,9.0,16.1,89,0.17,RA,,0.23,WeatherDisplay:10.37,2013-01-13 00:35:00,
2013-01-12 18:40:00,41.3,38.3,29.82,NW,317,11.8,11.8,89,0.17,RA,,0.24,WeatherDisplay:10.37,2013-01-13 00:40:00,
2013-01-12 18:45:00,41.3,38.3,29.82,NNE,22,12.7,15.0,89,0.16,RA,,0.24,WeatherDisplay:10.37,2013-01-13 00:45:00,
2013-01-12 18:50:00,41.3,38.3,29.83,North,355,10.6,10.6,89,0.15,RA,,0.25,WeatherDisplay:10.37,2013-01-13 00:50:00,
2013-01-12 18:55:00,41.5,38.8,29.82,NNW,332,11.3,11.3,90,0.14,RA,,0.26,WeatherDisplay:10.37,2013-01-13 00:55:00,
2013-01-12 19:00:00,41.6,38.9,29.82,NNW,327,2.1,8.1,90,0.13,RA,,0.26,WeatherDisplay:10.37,2013-01-13 01:00:00,
2013-01-12 19:05:00,41.8,39.1,29.81,NNW,339,10.2,10.4,90,0.12,RA,,0.27,WeatherDisplay:10.37,2013-01-13 01:05:00,
2013-01-12 19:10:00,41.8,39.1,29.80,NW,314,16.2,16.2,90,0.10,RA,,0.27,WeatherDisplay:10.37,2013-01-13 01:10:00,
2013-01-12 19:16:00,41.8,39.4,29.79,NNW,327,9.8,10.4,91,0.09,OVC,,0.28,WeatherDisplay:10.37,2013-01-13 01:16:00,
2013-01-12 19:21:00,41.9,39.5,29.79,North,349,14.5,16.5,91,0.09,RA,,0.28,WeatherDisplay:10.37,2013-01-13 01:21:00,
2013-01-12 19:26:00,41.9,39.5,29.79,NNW,334,10.8,10.8,91,0.07,RA,,0.28,WeatherDisplay:10.37,2013-01-13 01:26:00,
2013-01-12 19:31:00,41.8,39.4,29.78,NNW,348,12.9,13.8,91,0.06,OVC,,0.29,WeatherDisplay:10.37,2013-01-13 01:31:00,
2013-01-12 19:36:00,41.8,39.4,29.79,NW,324,12.2,16.1,91,0.06,-RA,,0.29,WeatherDisplay:10.37,2013-01-13 01:36:00,
2013-01-12 19:41:00,41.8,39.4,29.78,NNE,19,13.6,13.8,91,0.05,-RA,,0.29,WeatherDisplay:10.37,2013-01-13 01:41:00,
2013-01-12 19:46:00,41.8,39.4,29.78,West,270,17.9,19.6,91,0.05,-RA,,0.29,WeatherDisplay:10.37,2013-01-13 01:46:00,
2013-01-12 19:51:00,41.6,38.9,29.78,NNE,13,16.0,16.1,90,0.05,-RA,,0.30,WeatherDisplay:10.37,2013-01-13 01:51:00,
2013-01-12 19:56:00,41.6,38.9,29.78,North,360,11.9,11.9,90,0.04,-RA,,0.30,WeatherDisplay:10.37,2013-01-13 01:56:00,
2013-01-12 20:01:00,41.3,38.6,29.78,North,5,14.9,15.0,90,0.05,-RA,,0.31,WeatherDisplay:10.37,2013-01-13 02:01:00,
2013-01-12 20:06:00,41.3,38.6,29.78,North,360,7.0,8.1,90,0.04,-RA,,0.31,WeatherDisplay:10.37,2013-01-13 02:06:00,
2013-01-12 20:11:00,41.2,38.5,29.78,North,11,9.5,13.8,90,0.06,RA,,0.33,WeatherDisplay:10.37,2013-01-13 02:11:00,
2013-01-12 20:16:00,40.9,38.2,29.79,North,360,8.5,8.5,90,0.05,RA,,0.33,WeatherDisplay:10.37,2013-01-13 02:16:00,
2013-01-12 20:21:00,40.8,38.1,29.79,NNW,336,9.1,13.8,90,0.06,RA,,0.34,WeatherDisplay:10.37,2013-01-13 02:21:00,
2013-01-12 20:26:00,40.6,37.9,29.78,NE,45,6.6,8.1,90,0.07,RA,,0.35,WeatherDisplay:10.37,2013-01-13 02:26:00,
2013-01-12 20:31:00,40.5,37.8,29.78,NW,312,11.2,11.5,90,0.07,-RA,,0.37,WeatherDisplay:10.37,2013-01-13 02:31:00,
2013-01-12 20:36:00,40.3,37.6,29.79,North,350,10.1,10.4,90,0.09,-RA,,0.38,WeatherDisplay:10.37,2013-01-13 02:36:00,
2013-01-12 20:41:00,40.1,37.4,29.79,North,5,15.9,15.9,90,0.09,-RA,,0.39,WeatherDisplay:10.37,2013-01-13 02:41:00,
2013-01-12 20:46:00,39.8,37.1,29.79,West,278,17.3,19.5,90,0.11,-RA,,0.40,WeatherDisplay:10.37,2013-01-13 02:46:00,
2013-01-12 20:51:00,39.2,36.5,29.79,NNW,336,16.9,19.6,90,0.11,-RA,,0.41,WeatherDisplay:10.37,2013-01-13 02:51:00,
2013-01-12 20:56:00,38.8,36.1,29.80,NW,326,18.6,18.6,90,0.12,-RA,,0.42,WeatherDisplay:10.37,2013-01-13 02:56:00,
2013-01-12 21:01:00,37.8,35.1,29.79,NNW,336,16.1,26.5,90,0.12,-RA,,0.43,WeatherDisplay:10.37,2013-01-13 03:01:00,
2013-01-12 21:06:00,37.3,34.6,29.79,NNW,327,20.4,20.4,90,0.13,-RA,,0.44,WeatherDisplay:10.37,2013-01-13 03:06:00,
2013-01-12 21:11:00,36.9,34.2,29.78,NW,311,14.5,18.4,90,0.12,-SN,,0.45,WeatherDisplay:10.37,2013-01-13 03:11:00,
2013-01-12 21:16:00,36.5,33.8,29.78,NW,315,15.3,18.4,90,0.14,-SN,,0.47,WeatherDisplay:10.37,2013-01-13 03:16:00,
2013-01-12 21:21:00,36.2,33.5,29.79,NNW,328,17.2,18.4,90,0.14,-SN,,0.49,WeatherDisplay:10.37,2013-01-13 03:21:00,
2013-01-12 21:26:00,36.0,33.4,29.78,West,281,18.5,25.3,90,0.14,-SN,,0.50,WeatherDisplay:10.37,2013-01-13 03:26:00,
2013-01-12 21:31:00,35.9,33.3,29.78,WNW,302,12.3,13.8,90,0.15,-SN,,0.51,WeatherDisplay:10.37,2013-01-13 03:31:00,
2013-01-12 21:36:00,35.9,33.5,29.77,North,355,12.3,16.1,91,0.14,-SN,,0.53,WeatherDisplay:10.37,2013-01-13 03:36:00,
2013-01-12 21:41:00,35.8,33.4,29.77,NNW,327,16.9,18.4,91,0.16,-SN,,0.54,WeatherDisplay:10.37,2013-01-13 03:41:00,
2013-01-12 21:46:00,35.5,33.1,29.76,WNW,302,16.6,18.4,91,0.16,-SN,,0.56,WeatherDisplay:10.37,2013-01-13 03:46:00,
2013-01-12 21:51:00,35.3,32.9,29.77,NNW,329,12.1,18.0,91,0.17,-SN,,0.58,WeatherDisplay:10.37,2013-01-13 03:51:00,
2013-01-12 21:56:00,35.2,32.8,29.77,NNW,337,20.2,25.5,91,0.18,-SN,,0.60,WeatherDisplay:10.37,2013-01-13 03:56:00,
2013-01-12 22:01:00,35.0,32.6,29.78,NNE,13,23.2,24.2,91,0.18,-SN,,0.61,WeatherDisplay:10.37,2013-01-13 04:01:00,
2013-01-12 22:06:00,35.0,32.6,29.79,NW,323,13.9,19.5,91,0.18,-SN,,0.62,WeatherDisplay:10.37,2013-01-13 04:06:00,
2013-01-12 22:11:00,34.9,32.5,29.79,NW,310,18.3,19.6,91,0.18,-SN,,0.63,WeatherDisplay:10.37,2013-01-13 04:11:00,
2013-01-12 22:16:00,34.7,32.3,29.80,NNW,341,24.1,24.2,91,0.18,-SN,,0.65,WeatherDisplay:10.37,2013-01-13 04:16:00,
2013-01-12 22:21:00,34.4,32.0,29.81,WNW,294,18.8,18.8,91,0.19,-SN,,0.67,WeatherDisplay:10.37,2013-01-13 04:21:00,
2013-01-12 22:26:00,34.4,32.0,29.77,West,274,8.0,15.0,91,0.20,-SN,,0.69,WeatherDisplay:10.37,2013-01-13 04:26:00,
2013-01-12 22:31:00,34.4,32.0,29.81,NNE,25,24.7,24.7,91,0.19,-SN,,0.71,WeatherDisplay:10.37,2013-01-13 04:31:00,
2013-01-12 22:36:00,34.0,31.6,29.79,NW,305,18.9,25.5,91,0.20,-SN,,0.73,WeatherDisplay:10.37,2013-01-13 04:36:00,
2013-01-12 22:41:00,33.8,31.5,29.80,NNW,338,23.8,30.0,91,0.20,-SN,,0.75,WeatherDisplay:10.37,2013-01-13 04:41:00,
2013-01-12 22:46:00,33.5,31.2,29.78,West,277,18.0,19.6,91,0.21,-SN,,0.78,WeatherDisplay:10.37,2013-01-13 04:46:00,
2013-01-12 22:51:00,33.4,31.1,29.79,West,263,14.6,25.3,91,0.22,RA,,0.80,WeatherDisplay:10.37,2013-01-13 04:51:00,
2013-01-12 22:56:00,33.2,30.9,29.79,NW,325,20.0,20.0,91,0.22,RA,,0.82,WeatherDisplay:10.37,2013-01-13 04:56:00,
2013-01-12 23:00:00,33.1,30.8,29.79,NW,325,16.0,21.0,91,0.01,RA,,0.83,WeatherDisplay:10.37,2013-01-13 05:00:00,
2013-01-12 23:02:00,33.1,30.8,29.79,NNW,336,15.5,21.0,91,0.22,RA,,0.84,WeatherDisplay:10.37,2013-01-13 05:02:00,
2013-01-12 23:03:00,33.1,30.8,29.79,NW,309,19.5,20.7,91,0.23,RA,,0.84,WeatherDisplay:10.37,2013-01-13 05:03:00,
2013-01-12 23:09:00,32.9,30.6,29.79,NNW,337,19.5,23.0,91,0.23,RA,,0.86,WeatherDisplay:10.37,2013-01-13 05:09:00,
2013-01-12 23:14:00,32.8,30.5,29.78,NW,306,28.8,28.8,91,0.25,-SN,,0.89,WeatherDisplay:10.37,2013-01-13 05:14:00,
2013-01-12 23:19:00,32.8,30.7,29.78,NNW,338,20.0,23.0,92,0.26,-SN,,0.92,WeatherDisplay:10.37,2013-01-13 05:19:00,
2013-01-12 23:24:00,32.7,30.6,29.78,NW,311,18.4,19.6,92,0.26,-SN,,0.94,WeatherDisplay:10.37,2013-01-13 05:24:00,
2013-01-12 23:29:00,32.7,30.6,29.79,NNW,344,15.7,15.7,92,0.26,-SN,,0.96,WeatherDisplay:10.37,2013-01-13 05:29:00,
2013-01-12 23:34:00,32.7,30.6,29.79,NW,309,18.2,20.7,92,0.26,-SN,,0.98,WeatherDisplay:10.37,2013-01-13 05:34:00,
2013-01-12 23:39:00,32.7,30.6,29.78,NNW,333,20.0,20.7,92,0.24,-SN,,0.98,WeatherDisplay:10.37,2013-01-13 05:39:00,
2013-01-12 23:44:00,32.7,30.6,29.77,NNW,333,15.9,19.6,92,0.23,-SN,,0.99,WeatherDisplay:10.37,2013-01-13 05:44:00,
2013-01-12 23:49:00,32.7,30.6,29.75,NE,36,21.3,21.3,92,0.21,-SN,,1.00,WeatherDisplay:10.37,2013-01-13 05:49:00,
2013-01-12 23:54:00,32.7,30.6,29.76,North,355,16.2,18.4,92,0.20,-SN,,1.01,WeatherDisplay:10.37,2013-01-13 05:54:00,
2013-01-12 23:59:00,32.7,30.6,29.76,WNW,299,9.8,15.0,92,0.19,-SN,,1.01,WeatherDisplay:10.37,2013-01-13 05:59:00,